Regional Weather Roundup
Issued by NWS

Home | Current Version | Previous Version | Graphics & Text | Print | Product List | Glossary On
Versions: 1 2 3 4 5 6 7 8 9 10 11 12 13 14 15 16 17 18 19 20 21 22 23 24 25 26 27 28 29 30 31 32 33 34 35 36 37 38 39 40 41 42 43 44 45 46 47 48 49 50
000
ASUS44 KMEG 250610
RWRTN
TENNESSEE HOURLY STATE WEATHER ROUNDUP
NATIONAL WEATHER SERVICE MEMPHIS TN
1200 AM CST THU DEC 25 2014

TNZ002-004-019-021-049-052-054-088>092-250700-
WEST TENNESSEE

CITY           SKY/WX    TMP DP  RH WIND       PRES   REMARKS
MEMPHIS INTL   CLOUDY    43  35  73 W7        30.01R
NWS MEMPHIS      N/A     42 N/A N/A MISG        N/A
JACKSON        PTCLDY    38  34  85 W6        29.98R WCI  33
DYERSBURG      MOCLDY    39  25  56 W8        30.00R WCI  34
UNION CITY     MOCLDY    36  36 100 W7        29.95R WCI  30
PARIS          MOCLDY    36  34  93 W8        29.94R WCI  29
HUNTINGDON     CLEAR     36  33  88 W3        29.96R
LEXINGTON      CLOUDY    37  34  87 SW6       29.95R WCI  33
SAVANNAH       CLOUDY    39  36  87 W5        29.98S
$$

TNZ008-025-027-028-033-062-065-066-250700-
NORTH MIDDLE TENNESSEE

CITY           SKY/WX    TMP DP  RH WIND       PRES   REMARKS
NASHVILLE      CLOUDY    42  36  79 VRB7      29.94R
CLARKSVILLE    CLOUDY    40  36  86 W8        29.92R WCI  34
SMYRNA         CLOUDY    41  36  82 W8        29.96R
COOKEVILLE     CLOUDY    39  36  87 W6        29.90R WCI  35
CROSSVILLE     CLOUDY    38  33  82 W9        29.88R WCI  31
$$

TNZ061-075-076-078-094-096-097-250700-
SOUTH MIDDLE TENNESSEE

CITY           SKY/WX    TMP DP  RH WIND       PRES   REMARKS
FAYETTEVILLE   CLOUDY    39  36  87 MISG      29.95S
TULLAHOMA      CLOUDY    37  36  93 W6        29.94R WCI  33
WINCHESTER     CLOUDY    39  34  81 W8        29.95R WCI  34
MCMINNVILLE    CLOUDY    39  36  87 CALM      29.93R
COLUMBIA       CLOUDY    41  41 100 W8        29.94R
SHELBYVILLE    CLOUDY    41  37  87 SW6       29.95R
$$

TNZ017-018-042-046-047-250700-
NORTHEAST TENNESSEE

CITY           SKY/WX    TMP DP  RH WIND       PRES   REMARKS
TRI CITIES     CLOUDY    44  37  76 W12       29.83R
ELIZABETHTON   DRIZZLE   43  36  75 VRB6      29.82S
$$

TNZ012-013-036-069-073-074-250700-
CENTRAL EAST TENNESSEE

CITY           SKY/WX    TMP DP  RH WIND       PRES   REMARKS
KNOXVILLE      RAIN      44  39  82 SW13      29.88R
OAK RIDGE      CLOUDY    44  38  79 W8        29.90R
GATLINBURG     CLOUDY    43  37  81 SW8       29.86S
MORRISTOWN     PTCLDY    43  41  93 W6        29.85S
$$

TNZ083-085-099-250700-
SOUTHEAST TENNESSEE

CITY           SKY/WX    TMP DP  RH WIND       PRES   REMARKS
CHATTANOOGA    CLOUDY    45  36  70 SW5       29.94R
$$

SKY/WX REPORTED AS FAIR MEANS FEW OR NO CLOUDS BELOW
12 THOUSAND FEET.




USA.gov is the U.S. government's official web portal to all federal, state and local government web resources and services.